AX317 Weather Reports


time (UTC)temp
C
wind
direction
speed
KPH
gust
KPH
rain 1hr
cm
rain 24hr
cm
rain mn
cm
humidity
%
barometer
mb
20260507062839 7 297 0.0 0.0 0.00 0.00 0.00 96 1005.1
20260507062340 7 320 0.0 0.0 0.00 0.00 0.00 96 1005.1
20260507061840 7 320 0.0 0.0 0.00 0.00 0.00 96 1005.4
20260507061340 7 261 0.0 0.0 0.00 0.00 0.00 96 1005.4
20260507055340 7 261 0.0 0.0 0.00 0.00 0.00 96 1005.4
20260507054839 8 261 0.0 0.0 0.00 0.00 0.00 96 1005.8
20260507054339 8 261 0.0 0.0 0.00 0.00 0.00 96 1005.8
20260507053839 8 261 0.0 0.0 0.00 0.00 0.00 96 1005.8
20260507053339 8 320 0.0 0.0 0.00 0.00 0.00 96 1005.8
20260507052839 8 320 0.0 0.0 0.00 0.00 0.00 96 1006.1
20260507052340 8 270 0.0 0.0 0.00 0.00 0.00 96 1006.1
20260507051839 8 290 0.0 0.0 0.00 0.00 0.00 96 1006.1
20260507050839 8 253 0.0 0.0 0.00 0.00 0.00 96 1005.8
20260507045840 8 281 0.0 0.0 0.00 0.00 0.00 96 1005.8
20260507045339 8 327 0.0 0.0 0.00 0.00 0.00 96 1005.8
20260507042840 8 327 0.0 0.0 0.00 0.00 0.00 96 1005.4
20260507042339 8 327 0.0 0.0 0.00 0.00 0.00 96 1005.4
20260507041839 8 327 0.0 0.0 0.00 0.00 0.00 96 1005.4
20260507035839 8 327 0.0 0.0 0.00 0.00 1.14 96 1005.8
20260507032839 8 327 0.0 0.0 0.00 0.00 1.14 96 1005.8
20260507032339 8 327 0.0 0.0 0.00 0.00 1.14 96 1005.8
20260507031839 8 276 0.0 0.0 0.00 0.00 1.14 96 1005.8
20260507031340 8 345 0.0 0.0 0.00 0.00 1.14 96 1005.8
20260507030841 8 298 0.0 0.0 0.00 0.00 1.14 96 1005.8
20260507030339 8 275 0.0 0.0 0.00 0.00 1.14 96 1005.8
20260507025840 9 275 0.0 0.0 0.00 0.00 1.14 96 1005.8
20260507025340 9 284 0.0 0.0 0.00 0.00 1.14 96 1005.8
20260507024839 9 283 0.0 0.0 0.00 0.00 1.14 96 1005.8
20260507024344 9 292 0.0 0.0 0.00 0.00 1.14 96 1005.8
20260507023839 9 353 0.0 0.0 0.00 0.00 1.14 96 1005.4
20260507022840 9 353 0.0 0.0 0.00 0.00 1.14 96 1005.8
20260507022339 9 353 0.0 0.0 0.30 0.00 1.14 96 1005.8
20260507021840 9 301 0.0 0.0 0.00 0.00 1.12 96 1005.8
20260507021340 10 256 0.0 0.0 0.00 0.00 1.12 96 1005.8
20260507020839 10 320 0.0 0.0 0.00 0.00 1.12 96 1005.8
20260507020341 10 306 0.0 0.0 0.00 0.00 1.12 96 1005.8
20260507015840 10 330 0.0 0.0 0.00 0.00 1.12 96 1005.4
20260507014339 10 307 0.0 0.0 0.00 0.00 1.07 96 1005.4
20260507013427 11 313 0.0 0.0 0.00 0.00 1.07 97 1005.1
20260507011340 11 313 0.0 0.0 0.00 0.00 1.07 97 1004.4
20260507010840 11 319 0.0 0.0 0.00 0.00 1.07 97 1004.4
20260507010339 11 319 0.0 0.0 0.00 0.00 1.07 97 1004.4
20260507005340 12 319 0.0 0.0 0.00 0.00 1.07 98 1004.1
20260507004839 12 9 0.0 0.0 0.00 0.00 1.07 98 1004.1
20260507004339 12 318 0.0 0.0 7.04 0.00 1.07 98 1003.7
20260506214339 15 64 0.0 0.0 0.00 0.00 0.81 98 1001.7
20260506213839 15 64 0.0 0.0 0.00 0.00 0.81 98 1001.7
20260506213340 15 64 0.0 0.0 0.00 0.00 0.81 98 1001.7
20260506212839 15 150 0.0 0.0 0.00 0.00 0.81 98 1001.7
20260506212339 15 339 0.0 0.0 0.61 0.00 0.81 98 1001.7
20260506211840 15 76 0.0 0.0 0.00 0.00 0.76 98 1001.7
20260506211339 15 76 0.0 0.0 0.00 0.00 0.76 98 1001.7
20260506210839 15 155 0.0 0.0 0.00 0.00 0.76 98 1001.7
20260506205340 16 253 0.0 0.0 0.00 0.00 0.76 98 1001.7
20260506204839 16 267 0.0 0.0 0.30 0.00 0.76 97 1001.7
20260506204340 16 264 0.0 0.0 0.00 0.00 0.74 98 1001.7
20260506203840 16 141 0.0 0.0 0.00 0.00 0.74 98 1001.7
20260506203340 16 254 0.0 0.0 0.00 0.00 0.74 98 1001.7
20260506202839 16 164 0.0 0.0 0.30 0.00 0.74 98 1001.7
20260506202340 16 152 0.0 0.0 0.00 0.00 0.71 97 1001.7
20260506201840 16 310 0.0 0.0 0.00 0.00 0.71 97 1001.7
20260506201339 16 310 0.0 0.0 0.00 0.00 0.71 97 1001.7
20260506200840 16 12 0.0 0.0 0.00 0.00 0.71 98 1001.7
20260506200340 16 250 0.0 0.0 0.00 0.00 0.71 98 1001.7
20260506195839 16 258 0.0 0.0 0.00 0.00 0.71 97 1002.0
20260506195339 16 177 0.0 0.0 0.00 0.00 0.71 98 1002.0
20260506194839 16 166 0.0 0.0 0.00 0.00 0.71 98 1002.0
20260506194340 16 171 0.0 0.0 0.00 0.00 0.71 98 1002.0
20260506193840 16 10 0.0 0.0 0.30 0.00 0.71 97 1002.0
20260506193339 16 249 0.0 0.0 0.30 0.00 0.69 98 1002.0
20260506192841 16 317 0.0 0.0 0.00 0.00 0.66 98 1002.0
20260506192340 16 317 0.0 0.0 0.00 0.00 0.66 97 1002.4
20260506191840 16 317 0.0 0.0 0.00 0.00 0.66 97 1002.0
20260506185839 16 249 0.0 0.0 0.00 0.00 0.61 97 1002.4
20260506184339 16 255 0.0 0.0 0.00 0.00 0.53 97 1002.7
20260506183840 16 271 0.0 0.0 0.00 0.00 0.53 97 1002.7
20260506182839 16 189 0.0 0.0 0.30 0.00 0.51 97 1002.7
20260506182342 16 5 0.0 0.0 0.00 0.00 0.48 97 1003.0
20260506181840 16 5 0.0 0.0 0.30 0.00 0.48 96 1003.0
20260506181341 16 110 0.0 0.0 0.00 0.00 0.46 96 1003.0
20260506180839 16 321 0.0 0.0 0.61 0.00 0.46 96 1003.4
20260506180340 16 195 0.0 0.0 0.00 0.00 0.41 96 1003.4
20260506175842 16 140 0.0 0.0 0.30 0.00 0.41 96 1003.4
20260506175343 16 259 0.0 0.0 0.61 0.00 0.38 96 1003.7
20260506174840 16 133 0.0 0.0 0.30 0.00 0.33 96 1003.7
20260506174340 16 220 0.0 0.0 0.00 0.00 0.30 95 1003.7
20260506173841 16 80 0.0 0.0 0.30 0.00 0.30 95 1004.1
20260506173340 16 274 0.0 0.0 0.30 0.00 0.28 95 1003.7
20260506172841 16 308 0.0 0.0 0.61 0.00 0.25 94 1004.1
20260506172339 16 14 0.0 0.0 0.00 0.00 0.20 94 1004.1
20260506171842 16 284 0.0 0.0 0.30 0.00 0.20 94 1004.1
20260506171340 16 225 0.0 0.0 0.30 0.00 0.18 93 1004.4
20260506170839 16 274 0.0 0.0 0.00 0.00 0.15 93 1004.4
20260506170339 16 293 0.0 0.0 0.30 0.00 0.15 93 1004.1
20260506165840 16 197 0.0 0.0 0.30 0.00 0.13 93 1004.1
20260506165339 16 291 0.0 0.0 0.00 0.00 0.10 92 1004.1
20260506164840 16 248 0.0 0.0 0.00 0.00 0.08 91 1004.1
20260506164341 16 248 0.0 0.0 0.30 0.00 0.08 91 1004.1
20260506163840 16 243 0.0 0.0 0.00 0.00 0.05 91 1004.1
20260506163339 16 344 0.0 0.0 0.30 0.00 0.05 91 1004.1
20260506162841 16 139 0.0 0.0 0.00 0.00 0.03 90 1004.1
20260506162339 16 232 0.0 0.0 0.30 0.00 0.03 89 1004.4
20260506161842 16 118 0.0 0.0 0.00 0.00 0.00 88 1004.1
20260506161339 17 189 0.0 0.0 0.00 0.00 0.00 87 1004.4
20260506160839 17 182 0.0 0.0 0.00 0.00 0.00 86 1004.4
20260506160342 17 204 0.0 0.0 0.00 0.00 0.00 86 1004.1
20260506155841 17 322 0.0 0.0 0.00 0.00 0.00 85 1004.4
20260506155339 17 318 0.0 0.0 0.00 0.00 0.00 85 1004.4
20260506154839 17 97 0.0 0.0 0.00 0.00 0.00 84 1004.4
20260506154340 17 235 0.0 0.0 0.00 0.00 0.00 84 1004.7
20260506153842 17 295 0.0 0.0 0.00 0.00 0.00 84 1004.7
20260506153339 17 170 0.0 0.0 0.00 0.00 0.00 84 1004.7
20260506152842 17 59 0.0 0.0 0.00 0.00 0.00 84 1005.1
20260506152343 16 182 0.0 0.0 0.00 0.00 0.00 84 1005.1
20260506151840 16 259 0.0 0.0 0.00 0.00 0.00 85 1005.1
20260506151340 16 230 0.0 0.0 0.00 0.00 0.00 84 1005.1
20260506150842 16 308 0.0 0.0 0.00 0.00 0.00 82 1005.4
20260506150339 17 136 0.0 0.0 0.00 0.00 0.00 81 1005.4
20260506145841 17 293 0.0 0.0 0.00 0.00 0.00 81 1005.4
20260506145342 17 207 0.0 0.0 0.00 0.00 0.00 81 1005.4
20260506144842 17 226 0.0 0.0 0.00 0.00 0.00 80 1005.4
20260506144340 17 116 0.0 0.0 0.00 0.00 0.00 80 1005.4
20260506143839 17 267 0.0 0.0 0.00 0.00 0.00 80 1005.4
20260506143341 17 263 0.0 0.0 0.00 0.00 0.00 80 1005.4
20260506142840 17 131 0.0 0.0 0.00 0.00 0.00 80 1005.1
20260506142340 17 276 0.0 0.0 0.00 0.00 0.00 80 1005.1
20260506141839 17 261 0.0 0.0 0.00 0.00 0.00 79 1005.1
20260506141339 17 36 0.0 0.0 0.00 0.00 0.00 80 1005.1
20260506140840 17 252 0.0 0.0 0.00 0.00 0.00 80 1005.1
20260506140348 17 274 0.0 0.0 0.00 0.00 0.00 79 1005.1
20260506135839 17 345 0.0 0.0 0.00 0.00 0.00 79 1005.1
20260506135344 17 149 0.0 0.0 0.00 0.00 0.00 80 1005.1
20260506134840 17 227 0.0 0.0 0.00 0.00 0.00 80 1005.1
20260506134341 16 13 0.0 0.0 0.00 0.00 0.00 82 1005.1
20260506133840 16 139 0.0 0.0 0.00 0.00 0.00 82 1005.4
20260506133340 16 254 0.0 0.0 0.00 0.00 0.00 82 1005.1
20260506132839 16 251 0.0 0.0 0.00 0.00 0.00 83 1005.4
20260506132341 16 341 0.0 0.0 0.00 0.00 0.00 83 1005.4
20260506131840 16 29 0.0 0.0 0.00 0.00 0.00 83 1005.4
20260506131340 15 244 0.0 0.0 0.00 0.00 0.00 84 1005.4
20260506130842 15 193 0.0 0.0 0.00 0.00 0.00 84 1005.8
20260506130342 15 232 0.0 0.0 0.00 0.00 0.00 84 1005.8
20260506125839 15 7 0.0 0.0 0.00 0.00 0.00 84 1005.8
20260506125340 15 254 0.0 0.0 0.00 0.00 0.00 84 1005.8
20260506124841 15 117 0.0 0.0 0.00 0.00 0.00 85 1006.1
20260506124340 15 293 0.0 0.0 0.00 0.00 0.00 85 1006.1
20260506123840 15 345 0.0 0.0 0.00 0.00 0.00 85 1006.1
20260506123340 15 290 0.0 0.0 0.00 0.00 0.00 85 1005.8
20260506122840 15 198 0.0 0.0 0.00 0.00 0.00 85 1005.8
20260506122339 15 198 0.0 0.0 0.00 0.00 0.00 85 1005.8
20260506121840 15 284 0.0 0.0 0.00 0.00 0.00 86 1005.8
20260506121340 15 284 0.0 0.0 0.00 0.00 0.00 86 1005.4
20260506120840 15 281 0.0 0.0 0.00 0.00 0.00 86 1005.4
20260506120341 15 163 0.0 0.0 0.00 0.00 0.00 86 1005.4
20260506115339 14 163 0.0 0.0 0.00 0.00 0.00 87 1005.8
20260506114839 13 163 0.0 0.0 0.00 0.00 0.00 90 1005.8
20260506114340 13 330 0.0 0.0 0.00 0.00 0.00 90 1005.8
20260506113839 13 288 0.0 0.0 0.00 0.00 0.00 90 1005.8
20260506112340 13 217 0.0 0.0 0.00 0.00 0.00 90 1005.8
20260506111839 12 289 0.0 0.0 0.00 0.00 0.00 90 1005.8
20260506110339 12 289 0.0 0.0 0.00 0.00 0.00 90 1005.8
20260506102339 12 289 0.0 0.0 0.00 0.00 0.00 90 1005.8
20260506101840 12 282 0.0 0.0 0.00 0.00 0.00 90 1005.8
20260506095340 13 281 0.0 0.0 0.00 0.00 0.00 85 1005.8
20260506080840 13 285 0.0 0.0 0.00 0.00 0.00 85 1005.8
20260506080339 13 285 0.0 0.0 0.00 0.00 0.00 84 1006.1